Location: Unspecified
(0.0000°N, 0.0000°E)
Time: 23:08:37
(UTC+01:00)

GPS 2-12 Rocket1 - Visible Passes

Search period start: 24 November 2017 00:00
Search period end: 04 December 2017 00:00
Orbit: 587 x 653 km, 20.0° (Epoch: 24 November)

Date Brightness Start Highest point End Pass type
(mag) Time Alt. Az. Time Alt. Az. Time Alt. Az.
26 Nov 5.5 20:29:22 10° NNW 20:29:50 11° NNW 20:29:50 11° NNW visible
27 Nov 5.5 20:44:42 10° NW 20:45:20 13° NNW 20:45:20 13° NNW visible
28 Nov 5.1 19:18:21 10° NNW 19:20:56 14° NNE 19:23:32 10° NE visible
28 Nov 5.6 21:00:19 10° NW 21:00:55 13° NW 21:00:55 13° NW visible
29 Nov 4.6 19:33:36 10° NNW 19:37:17 22° NNE 19:39:33 16° NE visible
29 Nov 5.8 21:16:11 10° WNW 21:16:36 12° WNW 21:16:36 12° WNW visible
30 Nov 3.9 19:49:10 10° NW 19:53:32 34° NNE 19:55:19 26° ENE visible
30 Nov 6.1 21:32:19 10° WNW 21:32:23 10° WNW 21:32:23 10° WNW visible
01 Dec 5.7 06:15:32 10° SSW 06:17:57 14° SSE 06:20:20 10° SE visible
01 Dec 3.2 20:05:00 10° WNW 20:09:43 58° NNE 20:11:11 40° ENE visible
02 Dec 3.1 20:21:03 10° WNW 20:25:52 82° SSW 20:27:06 50° ESE visible
03 Dec 5.7 05:04:36 10° SSW 05:06:46 13° SSE 05:08:54 10° SE visible
03 Dec 4.0 20:37:25 10° W 20:42:03 47° SSW 20:43:03 40° SSE visible
